LNHOG ENHD-ENZV

Flight info

Callsign LNHOG
Flight time 0h 17m
Altitude 1500
Route BOKN ØST
Aircraft

Departure

Time 2026-04-27 16:56
Airport Haugesund Airport, Karmøy (ENHD)

Arrival

Time 2026-04-27 17:13
Airport Stavanger Airport, Sola (ENZV)
Time Latitude Longitude Altitude Speed Heading
2026-04-27 16:50 59.34480 5.21331 85 ft 0 kts 286°
2026-04-27 16:53 59.34475 5.21315 84 ft 5 kts 197°
2026-04-27 16:53 59.34444 5.21394 82 ft 11 kts 122°
2026-04-27 16:53 59.34383 5.21528 82 ft 15 kts 127°
2026-04-27 16:54 59.34306 5.21712 82 ft 18 kts 132°
2026-04-27 16:54 59.34226 5.21905 82 ft 18 kts 144°
2026-04-27 16:54 59.34126 5.21833 82 ft 16 kts 217°
2026-04-27 16:54 59.34013 5.21868 80 ft 20 kts 134°
2026-04-27 16:55 59.33935 5.22051 86 ft 14 kts 177°
2026-04-27 16:55 59.33937 5.22011 86 ft 0 kts 312°
2026-04-27 16:55 59.33939 5.22007 86 ft 7 kts 309°
2026-04-27 16:55 59.34120 5.21643 88 ft 62 kts 309°
2026-04-27 16:56 59.34472 5.20931 202 ft 79 kts 309°
2026-04-27 16:56 59.34982 5.20621 411 ft 92 kts 18°
2026-04-27 16:56 59.35178 5.21757 691 ft 97 kts 114°
2026-04-27 16:56 59.34778 5.22836 903 ft 104 kts 128°
2026-04-27 16:57 59.34303 5.24031 1008 ft 116 kts 129°
2026-04-27 16:57 59.33802 5.25226 1123 ft 112 kts 133°
2026-04-27 16:57 59.33243 5.26370 1125 ft 117 kts 136°
2026-04-27 16:57 59.32663 5.27525 1137 ft 119 kts 134°
2026-04-27 16:58 59.32101 5.28684 1167 ft 120 kts 135°
2026-04-27 16:58 59.31518 5.29881 1154 ft 122 kts 134°
2026-04-27 16:58 59.30950 5.31091 1210 ft 119 kts 133°
2026-04-27 16:58 59.30398 5.32271 1238 ft 118 kts 134°
2026-04-27 16:59 59.29820 5.33447 1188 ft 121 kts 134°
2026-04-27 16:59 59.29227 5.34623 1171 ft 122 kts 136°
2026-04-27 16:59 59.28626 5.35789 1170 ft 120 kts 134°
2026-04-27 16:59 59.28071 5.36993 1138 ft 120 kts 131°
2026-04-27 17:00 59.27124 5.39021 1060 ft 122 kts 135°
2026-04-27 17:00 59.26337 5.40542 1174 ft 117 kts 135°
2026-04-27 17:00 59.25767 5.41677 1234 ft 117 kts 130°
2026-04-27 17:01 59.25290 5.42987 1246 ft 120 kts 123°
2026-04-27 17:01 59.24842 5.44349 1279 ft 118 kts 122°
2026-04-27 17:01 59.24383 5.45651 1271 ft 118 kts 125°
2026-04-27 17:01 59.23822 5.46861 1242 ft 123 kts 139°
2026-04-27 17:02 59.23127 5.47860 1221 ft 123 kts 148°
2026-04-27 17:02 59.22413 5.48714 1220 ft 119 kts 150°
2026-04-27 17:02 59.21696 5.49520 1202 ft 117 kts 150°
2026-04-27 17:02 59.20985 5.50325 1185 ft 121 kts 152°
2026-04-27 17:03 59.20255 5.51122 1240 ft 119 kts 155°
2026-04-27 17:03 59.19487 5.51759 1240 ft 121 kts 160°
2026-04-27 17:03 59.18703 5.52305 1254 ft 118 kts 162°
2026-04-27 17:03 59.17923 5.52818 1273 ft 119 kts 162°
2026-04-27 17:04 59.17149 5.53334 1317 ft 118 kts 161°
2026-04-27 17:04 59.16361 5.53868 1288 ft 120 kts 161°
2026-04-27 17:04 59.15569 5.54428 1283 ft 122 kts 160°
2026-04-27 17:04 59.14785 5.55005 1313 ft 120 kts 161°
2026-04-27 17:05 59.13988 5.55543 1311 ft 121 kts 162°
2026-04-27 17:05 59.13198 5.56055 1330 ft 120 kts 164°
2026-04-27 17:05 59.12389 5.56550 1280 ft 124 kts 163°
2026-04-27 17:05 59.11561 5.57016 1174 ft 121 kts 166°
2026-04-27 17:06 59.10745 5.57374 978 ft 122 kts 171°
2026-04-27 17:06 59.09925 5.57616 898 ft 117 kts 175°
2026-04-27 17:06 59.09124 5.57786 805 ft 115 kts 176°
2026-04-27 17:06 59.08339 5.57889 782 ft 108 kts 180°
2026-04-27 17:07 59.07614 5.57948 856 ft 102 kts 181°
2026-04-27 17:07 59.06878 5.57973 834 ft 108 kts 182°
2026-04-27 17:07 59.06107 5.57968 818 ft 114 kts 183°
2026-04-27 17:07 59.05310 5.57943 860 ft 117 kts 182°
2026-04-27 17:08 59.04480 5.57953 834 ft 121 kts 181°
2026-04-27 17:08 59.03629 5.57940 799 ft 123 kts 182°
2026-04-27 17:08 59.02777 5.57894 825 ft 120 kts 185°
2026-04-27 17:08 59.01941 5.57818 820 ft 121 kts 184°
2026-04-27 17:09 59.01107 5.57725 850 ft 120 kts 185°
2026-04-27 17:09 59.00271 5.57660 890 ft 120 kts 184°
2026-04-27 17:09 58.99441 5.57606 849 ft 118 kts 185°
2026-04-27 17:09 58.98623 5.57490 804 ft 117 kts 187°
2026-04-27 17:10 58.97813 5.57354 776 ft 117 kts 188°
2026-04-27 17:10 58.96997 5.57213 719 ft 117 kts 185°
2026-04-27 17:10 58.96209 5.57358 716 ft 115 kts 171°
2026-04-27 17:10 58.95397 5.57707 794 ft 122 kts 169°
2026-04-27 17:11 58.94577 5.58090 836 ft 127 kts 168°
2026-04-27 17:11 58.92816 5.58797 881 ft 132 kts 171°
2026-04-27 17:11 58.91901 5.59118 856 ft 133 kts 172°
2026-04-27 17:12 58.90128 5.59845 734 ft 130 kts 167°
2026-04-27 17:12 58.89230 5.60355 660 ft 137 kts 161°
2026-04-27 17:12 58.88374 5.61041 462 ft 124 kts 154°
2026-04-27 17:13 58.87781 5.62021 330 ft 98 kts 126°
2026-04-27 17:13 58.87561 5.63119 211 ft 79 kts 80°
2026-04-27 17:13 58.87890 5.63772 69 ft 71 kts 356°
2026-04-27 17:13 58.88317 5.63772 32 ft 48 kts 354°
2026-04-27 17:14 58.88738 5.63761 76 ft 74 kts 352°
2026-04-27 17:14 58.89274 5.63610 306 ft 75 kts 322°
2026-04-27 17:14 58.89355 5.62643 544 ft 81 kts 250°
2026-04-27 17:14 58.88971 5.61852 789 ft 94 kts 211°
2026-04-27 17:15 58.88372 5.61445 835 ft 93 kts 194°
2026-04-27 17:15 58.87719 5.61298 842 ft 94 kts 187°
2026-04-27 17:15 58.87069 5.61234 804 ft 93 kts 185°
2026-04-27 17:15 58.86425 5.61211 772 ft 92 kts 181°
2026-04-27 17:16 58.85774 5.61376 733 ft 95 kts 167°
2026-04-27 17:16 58.85199 5.61954 724 ft 92 kts 128°
2026-04-27 17:16 58.85124 5.63105 613 ft 90 kts 56°
2026-04-27 17:16 58.85647 5.63677 478 ft 93 kts
2026-04-27 17:17 58.86202 5.63818 316 ft 71 kts 359°
2026-04-27 17:17 58.86680 5.63835 182 ft 71 kts 353°
2026-04-27 17:17 58.87188 5.63806 65 ft 73 kts 353°
2026-04-27 17:18 58.88062 5.63786 102 ft 77 kts 354°
2026-04-27 17:18 58.88606 5.63764 332 ft 80 kts 351°
2026-04-27 17:18 58.89172 5.63645 582 ft 86 kts 347°
2026-04-27 17:18 58.89733 5.63297 801 ft 89 kts 314°
2026-04-27 17:19 58.90144 5.62256 831 ft 107 kts 304°
2026-04-27 17:19 58.90582 5.61036 840 ft 112 kts 306°
2026-04-27 17:19 58.91057 5.59840 833 ft 111 kts 313°
2026-04-27 17:19 58.91609 5.58805 836 ft 110 kts 321°
2026-04-27 17:20 58.92276 5.58082 826 ft 111 kts 338°
2026-04-27 17:20 58.93021 5.57608 801 ft 113 kts 346°
2026-04-27 17:20 58.93796 5.57458 823 ft 111 kts 356°
2026-04-27 17:20 58.94574 5.57433 825 ft 112 kts 355°
2026-04-27 17:21 58.95352 5.57406 851 ft 112 kts 358°
2026-04-27 17:21 58.96118 5.57455 880 ft 109 kts
2026-04-27 17:21 58.96895 5.57561 842 ft 113 kts
2026-04-27 17:21 58.97662 5.57626 885 ft 111 kts 359°
2026-04-27 17:22 58.98441 5.57658 883 ft 113 kts 358°
2026-04-27 17:22 58.99221 5.57681 929 ft 111 kts 358°
2026-04-27 17:22 59.00015 5.57647 870 ft 116 kts 354°
2026-04-27 17:22 59.00817 5.57552 847 ft 115 kts 353°
2026-04-27 17:23 59.01600 5.57245 820 ft 115 kts 342°
2026-04-27 17:23 59.02366 5.56791 828 ft 113 kts 342°
2026-04-27 17:23 59.03103 5.56312 972 ft 111 kts 340°
2026-04-27 17:23 59.03803 5.55834 1182 ft 107 kts 340°
2026-04-27 17:24 59.04507 5.55282 1244 ft 111 kts 335°
2026-04-27 17:24 59.05210 5.54622 1291 ft 114 kts 333°
2026-04-27 17:24 59.05909 5.53876 1347 ft 116 kts 330°
2026-04-27 17:24 59.06610 5.53043 1324 ft 118 kts 328°
2026-04-27 17:25 59.07299 5.52191 1299 ft 116 kts 327°
2026-04-27 17:25 59.07974 5.51310 1224 ft 118 kts 325°
2026-04-27 17:25 59.08637 5.50403 1222 ft 115 kts 326°
2026-04-27 17:25 59.09304 5.49495 1152 ft 120 kts 325°
2026-04-27 17:26 59.09989 5.48599 1145 ft 118 kts 327°
2026-04-27 17:26 59.10688 5.47763 1102 ft 117 kts 329°
2026-04-27 17:26 59.11388 5.46943 1070 ft 118 kts 330°
2026-04-27 17:26 59.12115 5.46203 1030 ft 118 kts 333°
2026-04-27 17:27 59.12823 5.45449 1014 ft 114 kts 328°
2026-04-27 17:27 59.13491 5.44576 973 ft 117 kts 324°
2026-04-27 17:27 59.14147 5.43617 928 ft 118 kts 321°
2026-04-27 17:27 59.14789 5.42610 891 ft 117 kts 321°
2026-04-27 17:28 59.15426 5.41629 846 ft 117 kts 321°
2026-04-27 17:28 59.16058 5.40616 801 ft 117 kts 319°
2026-04-27 17:28 59.17219 5.38426 786 ft 116 kts 315°
2026-04-27 17:29 59.17802 5.37322 782 ft 116 kts 317°
2026-04-27 17:29 59.18422 5.36334 787 ft 116 kts 322°
2026-04-27 17:29 59.19077 5.35411 797 ft 115 kts 326°
2026-04-27 17:29 59.19748 5.34583 810 ft 114 kts 328°
2026-04-27 17:30 59.20431 5.33782 814 ft 114 kts 331°
2026-04-27 17:30 59.21892 5.32518 796 ft 114 kts 336°
2026-04-27 17:30 59.22615 5.31895 766 ft 113 kts 334°
2026-04-27 17:31 59.23333 5.31301 822 ft 109 kts 337°
2026-04-27 17:31 59.23738 5.31002 861 ft 108 kts 339°
2026-04-27 17:31 59.24453 5.30579 943 ft 107 kts 341°
2026-04-27 17:31 59.25174 5.30145 981 ft 109 kts 341°
2026-04-27 17:32 59.26139 5.29562 1081 ft 109 kts 340°
2026-04-27 17:32 59.27589 5.28611 1174 ft 111 kts 340°
2026-04-27 17:32 59.28088 5.28298 1151 ft 116 kts 340°
2026-04-27 17:33 59.28853 5.27801 1183 ft 115 kts 340°
2026-04-27 17:33 59.29613 5.27251 1157 ft 117 kts 337°
2026-04-27 17:33 59.30364 5.26673 1068 ft 115 kts 336°
2026-04-27 17:33 59.31073 5.26110 877 ft 106 kts 336°
2026-04-27 17:34 59.31739 5.25525 719 ft 101 kts 334°
2026-04-27 17:34 59.32342 5.24875 592 ft 100 kts 327°
2026-04-27 17:34 59.32864 5.24084 403 ft 82 kts 320°
2026-04-27 17:34 59.33253 5.23381 257 ft 71 kts 317°
2026-04-27 17:35 59.33580 5.22733 193 ft 65 kts 316°
2026-04-27 17:35 59.33895 5.22106 94 ft 60 kts 316°
2026-04-27 17:35 59.34138 5.21610 80 ft 55 kts 313°
2026-04-27 17:35 59.34471 5.20945 209 ft 74 kts 314°
2026-04-27 17:36 59.34803 5.20170 498 ft 74 kts 297°
2026-04-27 17:36 59.34591 5.19460 805 ft 84 kts 166°
2026-04-27 17:36 59.34107 5.20368 825 ft 110 kts 136°
2026-04-27 17:36 59.33465 5.21379 792 ft 124 kts 147°
2026-04-27 17:37 59.32725 5.22290 806 ft 126 kts 149°
2026-04-27 17:37 59.32002 5.23200 785 ft 118 kts 148°
2026-04-27 17:37 59.31375 5.24052 845 ft 104 kts 144°
2026-04-27 17:37 59.31053 5.25059 1014 ft 89 kts 57°
2026-04-27 17:38 59.31633 5.25090 701 ft 102 kts 335°
2026-04-27 17:38 59.32276 5.24507 567 ft 89 kts 336°
2026-04-27 17:38 59.32800 5.24101 371 ft 76 kts 330°
2026-04-27 17:38 59.33189 5.23485 303 ft 70 kts 319°
2026-04-27 17:39 59.33537 5.22817 204 ft 71 kts 316°
2026-04-27 17:39 59.33867 5.22163 100 ft 63 kts 317°
2026-04-27 17:39 59.34116 5.21664 80 ft 47 kts 315°
2026-04-27 17:39 59.34405 5.21052 239 ft 63 kts 311°
2026-04-27 17:40 59.34689 5.20303 464 ft 71 kts 304°
2026-04-27 17:40 59.34626 5.19449 735 ft 83 kts 199°
2026-04-27 17:40 59.34133 5.20242 760 ft 111 kts 132°
2026-04-27 17:40 59.33560 5.21370 736 ft 117 kts 135°
2026-04-27 17:41 59.32953 5.22437 679 ft 117 kts 139°
2026-04-27 17:41 59.32523 5.23515 717 ft 83 kts 77°
2026-04-27 17:41 59.32893 5.23672 489 ft 67 kts 330°
2026-04-27 17:41 59.33294 5.23173 275 ft 65 kts 325°
2026-04-27 17:42 59.33625 5.22632 170 ft 61 kts 317°
2026-04-27 17:42 59.33920 5.22055 95 ft 59 kts 316°
2026-04-27 17:42 59.34161 5.21578 81 ft 36 kts 315°
2026-04-27 17:42 59.34276 5.21498 85 ft 15 kts 39°
2026-04-27 17:43 59.34344 5.21586 82 ft 9 kts 341°
2026-04-27 17:43 59.34394 5.21512 84 ft 10 kts 320°
2026-04-27 17:43 59.34448 5.21417 84 ft 10 kts 330°
2026-04-27 17:43 59.34501 5.21377 83 ft 7 kts
2026-04-27 17:44 59.34523 5.21384 82 ft 0 kts 29°
2026-04-27 17:44 59.34523 5.21383 82 ft 0 kts 29°